STARLINK-32203, 60331

Orbit data source: Space-Track

STARLINK-32203, 60331 is a payload satellite owned by SpaceX/Seattle (US) in LEO that was launched on Fri, 02 Aug 2024 UTC via an FALCON 9 launch vehicle from the Air Force Eastern Test Range (AFETR). Payloads include a variety of satellites, spacecraft, and rockets equipped with specific instruments for various scientific and technological missions. These include communications satellites like Starlink; space stations such as the ISS; scientific satellites like the Hubble; Earth observation satellites from companies like Planet Labs, Umbra, and HawkEye 360; GPS; miniature CubeSats for education and research; and military/defense satellites.

Loading next visibility...
STARLINK-32203 details
Identifier
60331, 2024-136C
Orbit
LEO
Last TLE update1 day ago
Origin
Flag of USSpaceX/Seattle (US)
ManufacturerSpaceX/Seattle
MissionOperational spacecraft
Bus & MotorSTARLINK V2M, Unknown motor
Mass730 kg wet, ~700 kg dry
Launch date (UTC)
2024-08-02 (5 months ago)
Launch vehicle
FALCON 9
Launch site
Air Force Eastern Test Range (AFETR)
Object type
Payload
Rocket body
Debris
Shape & HBRUnknown
Radar Cross SectionLarge (>1 m²)

Expand to show TLE details & history

TLE from 1 day ago
0 STARLINK-32203
1 60331U 24136C   24356.15725874 -.00001531  00000-0 -28275-4 0  9998
2 60331  53.1624 332.5743 0001218  73.5751 286.5388 15.39636890 21804
Epoch: 2024-12-21T03:46Z
Definitive object data (Epoch: 2024-12-21T03:46:27.155Z)
Latitude0.00002°
Longitude-174.25128°
Altitude447.849 km
Speed7.645 km/s
True Right ascension22h 10m 17s
True Declination0° 00' 00"
Sunlit
Object was in daylight at TLE epoch
Visualization TLE readout
Latitude40.59133°
Longitude-38.91957°
Altitude450.356 km
Speed7.648 km/s
Apparent Right ascension11h 28m 35s
Apparent Declination5° 23' 06"
Sunlit
Object is in full shadow
Visualization observer readout
Local Sidereal Time04:19:16
Azimuth74.572° E
Elevation-9.628°
Doppler factor1
Orbital elements
Apogee altitude448.271 km
Perigee altitude446.608 km
Semi-major axis6,825.576 km
Eccentricity0.0001218
Inclination53.1624°
RAAN332.5743°
Arg. of periapsis73.5751°
True anomaly286.52542°
Mean anomaly286.5388°
Eccentric anomaly286.53211°
Mean motion3.84888 °/min
BSTAR-0.000028275
Orbital period93.53 mins
Loading maneuver chart data...
Loading historical data...
Loading historical data...
Loading historical data...
Loading historical data...
Loading historical data...
Loading historical data...
Loading historical data...

STARLINK-32203 Visibility forecast

Observer location: undefined°, undefined

Span
Click to sort rows by Start time (UTC) header in descending order
Start Az.
Max El. time (UTC)
Max El. Az.
Max El.
End time (UTC)
End Az.
4 mins2024-12-22 06:42:42.361Z341.181° N2024-12-22 06:44:42.361Z20.909° NNE19.084°2024-12-22 06:46:42.361Z64.252° ENE
5 mins2024-12-22 08:20:42.361Z297.237° NW2024-12-22 08:22:42.361Z193.975° SSW41.249°2024-12-22 08:25:42.361Z141.618° SSE
5 mins2024-12-23 01:09:42.361Z241.139° WSW2024-12-23 01:11:42.361Z2.839° NNE42.701°2024-12-23 01:14:42.361Z46.325° ENE
|